This is the latest recevied weather packets stored in our database for station/object KN4CI-1. If no packets are shown the sender has not sent any weather packets the latest 10 day(s).
| Time | Temp. | Humidity | Pressure | Rain* | Wind** | Luminosity | Snow |
|---|---|---|---|---|---|---|---|
| 1777705014 | 13.33° C | 20% | 1015.6 hPa | 0 mm | 1.34 m/s, 18° | - | - |
| 1777704715 | 13.33° C | 20% | 1016.6 hPa | 0 mm | 1.79 m/s, 43° | - | - |
| 1777704415 | 13.33° C | 20% | 1016.6 hPa | 0 mm | 1.79 m/s, 9° | - | - |
| 1777704106 | 13.33° C | 20% | 1016.6 hPa | 0 mm | 1.34 m/s, 34° | - | - |
| 1777703806 | 13.33° C | 20% | 1016.6 hPa | 0 mm | 2.24 m/s, 341° | - | - |
| 1777703506 | 13.33° C | 20% | 1016.6 hPa | 0 mm | 1.34 m/s, 43° | - | - |
| 1777703198 | 13.33° C | 19% | 1016.6 hPa | 0 mm | 1.79 m/s, 345° | - | - |
| 1777702899 | 13.33° C | 19% | 1016.6 hPa | 0 mm | 2.24 m/s, 347° | - | - |
| 1777702597 | 13.33° C | 19% | 1016.6 hPa | 0 mm | 1.79 m/s, 351° | - | - |
| 1777702294 | 13.33° C | 19% | 1016.6 hPa | 0 mm | 1.79 m/s, 351° | - | - |
| 1777701991 | 13.33° C | 19% | 1016.6 hPa | 0 mm | 0 m/s | - | - |
| 1777701385 | 13.89° C | 19% | 1016.6 hPa | 0 mm | 1.34 m/s, 13° | - | - |
| 1777701086 | 13.89° C | 19% | 1016.6 hPa | 0 mm | 1.34 m/s, 119° | - | - |
| 1777700786 | 13.89° C | 19% | 1016.6 hPa | 0 mm | 1.79 m/s, 78° | - | - |
| 1777699572 | 13.89° C | 19% | 1015.6 hPa | 0 mm | 1.34 m/s, 27° | - | - |
| 1777699272 | 13.89° C | 19% | 1015.6 hPa | 0 mm | 1.79 m/s, 351° | - | - |
| 1777698973 | 13.89° C | 19% | 1015.6 hPa | 0 mm | 1.34 m/s, 44° | - | - |
| 1777698669 | 13.89° C | 19% | 1015.6 hPa | 0 mm | 1.79 m/s, 93° | - | - |
| 1777698371 | 13.89° C | 19% | 1015.6 hPa | 0 mm | 1.79 m/s, 12° | - | - |
| 1777697762 | 13.89° C | 19% | 1015.6 hPa | 0 mm | 1.34 m/s, 351° | - | - |
| 1777697458 | 13.89° C | 19% | 1015.6 hPa | 0 mm | 2.24 m/s, 72° | - | - |
| 1777697156 | 14.44° C | 19% | 1015.6 hPa | 0 mm | 1.79 m/s, 58° | - | - |
| 1777695944 | 14.44° C | 19% | 1015.6 hPa | 0 mm | 1.34 m/s, 56° | - | - |
| 1777695645 | 14.44° C | 19% | 1015.6 hPa | 0 mm | 1.79 m/s, 63° | - | - |
| 1777695041 | 14.44° C | 19% | 1015.6 hPa | 0 mm | 1.34 m/s, 25° | - | - |
* Rain latest hour (hover to see other rain measurements)
** Current wind speed in m/s (hover to see current wind gust speed)